Read MPEC 2000-Y13
Read MPEC 2000-Y15
M.P.E.C. 2000-Y14 Issued 2000 Dec. 19, 20:08 UT
The Minor Planet Electronic Circulars contain information on unusual
minor planets and routine data on comets. They are published
on behalf of Commission 20 of the International Astronomical Union by the
Minor Planet Center, Smithsonian Astrophysical Observatory,
Cambridge, MA 02138, U.S.A.
Prepared using the Tamkin Foundation Computer Network
MPC@CFA.HARVARD.EDU
URL http://cfa-www.harvard.edu/iau/mpc.html ISSN 1523-6714
S/2000 S 3, S/2000 S 4, S/2000 S 5, S/2000 S 6, S/2000 S 10
Additional observations:
SK00S030 C2000 12 16.24178 03 35 15.27 +17 05 49.1 20.0 R 695
SK00S030 C2000 12 16.28286 03 35 14.63 +17 05 48.2 19.9 R 695
SK00S030 C2000 12 16.32715 03 35 13.94 +17 05 47.3 19.9 R 695
SK00S030 C2000 12 17.25568 03 34 59.86 +17 05 27.0 20 R 695
SK00S040 C2000 12 16.24178 03 36 30.52 +17 12 17.8 22.2 R 695
SK00S040 C2000 12 16.28286 03 36 29.85 +17 12 16.9 22.5 R 695
SK00S040 C2000 12 16.32715 03 36 29.18 +17 12 16.0 22.3 R 695
SK00S040 C2000 12 17.25568 03 36 15.38 +17 11 54.1 695
SK00S050 C2000 12 16.24842 03 36 26.93 +16 52 48.0 22.2 R 695
SK00S050 C2000 12 16.33372 03 36 25.45 +16 52 42.7 21.8 R 695
SK00S050 C2000 12 16.36634 03 36 24.90 +16 52 40.6 21.9 R 695
SK00S050 C2000 12 18.17323 03 35 55.10 +16 50 43.7 21.7 R 695
SK00S050 C2000 12 18.24913 03 35 53.82 +16 50 38.6 21.1 R 695
SK00S060 C2000 12 16.33372 03 36 34.64 +16 53 18.4 22.6 R 695
SK00S060 C2000 12 16.36634 03 36 34.07 +16 53 17.9 22.2 R 695
SK00S060 C2000 12 18.17323 03 36 04.74 +16 52 38.3 22.1 R 695
SK00S060 C2000 12 18.24913 03 36 03.49 +16 52 36.6 22.1 R 695
SK00S060 C2000 12 18.30520 03 36 02.58 +16 52 35.3 22.6 R 695
SK00S100 C2000 12 16.24178 03 35 31.80 +17 32 55.5 23.0 R 695
SK00S100 C2000 12 16.28286 03 35 31.07 +17 32 53.6 22.5 R 695
SK00S100 C2000 12 16.32715 03 35 30.31 +17 32 51.8 695
SK00S100 C2000 12 17.25568 03 35 14.48 +17 32 12.4 23.0 R 695
Observer details:
695 Kitt Peak. Observers M. Holman, B. Gladman, T. Grav. 4-m reflector + CCD.
Orbital elements:
S/2000 S 3
Epoch 2001 Apr. 1.0 TT = JDT 2452000.5 Marsden
M 22.75859 (2000.0) P Q
n 0.45512552 Peri. 60.80548 -0.30131939 -0.67522062
a 0.1102672 Node 63.73841 +0.37473964 -0.73312303
e 0.2934525 Incl. 48.65572 +0.87679919 +0.08128793
P 2.17 H 10.6 P/d 790.99
Residuals in seconds of arc
K009N 568 0.1- 0.1- K009P 697 0.9+ 0.1+ K009T 809 0.1- 0.1+
K009N 568 0.3- 0.1- K009P 697 0.0 0.0 K009T 809 0.0 0.1+
K009N 568 0.3- 0.1- K009R 693 0.1- 0.3- K00CG 695 0.0 0.1-
K009O 568 0.1+ 0.2+ K009R 693 0.0 0.3- K00CG 695 0.0 0.1-
K009O 568 0.0 0.2+ K009R 693 0.0 0.3- K00CG 695 0.1+ 0.0
K009O 568 0.1- 0.2+ K009T 809 0.0 0.2+ K00CH 695 0.1- 0.2+
S/2000 S 4
Epoch 2001 Apr. 1.0 TT = JDT 2452000.5 Marsden
M 72.46269 (2000.0) P Q
n 0.40469863 Peri. 284.71111 +0.77014495 -0.28357492
a 0.1192466 Node 94.51408 +0.51001121 +0.81173072
e 0.6345960 Incl. 34.96993 -0.38309962 +0.51056685
P 2.44 H 12.8 P/d 889.55
Residuals in seconds of arc
K009N 568 0.3- 0.1+ K009R 693 0.4+ 0.3- K00CG 695 0.3+ 0.1-
K009N 568 0.1- 0.0 K009R 693 0.6+ 0.2- K00CG 695 0.3- 0.0
K009N 568 0.1- 0.0 K009R 693 0.3+ 0.1+ K00CG 695 0.1- 0.2+
K009O 568 0.3- 0.1+ K00BR 675 0.1+ 0.2- K00CH 695 0.2+ 0.1+
K009O 568 0.3- 0.1+ K00BR 675 0.3- 0.1+
K009O 568 0.2- 0.1+ K00BR 675 0.1- 0.1+
S/2000 S 5
Epoch 2001 Apr. 1.0 TT = JDT 2452000.5 Marsden
M 175.61891 (2000.0) P Q
n 0.80363741 Peri. 91.35673 +0.06883302 -0.99217638
a 0.0754791 Node 352.00016 +0.30784894 +0.12043106
e 0.1578260 Incl. 48.45127 +0.94894207 +0.03289971
P 1.23 H 12.7 P/d 447.96
Residuals in seconds of arc
K0087 809 0.1+ 0.1+ K00B2 695 0.3+ 0.1+ K00BS 675 0.0 0.1-
K0087 809 0.3+ 0.1- K00B3 695 0.1+ 0.1- K00BS 675 0.0 0.1-
K0087 809 0.1+ 0.2- K00B3 695 0.0 0.0 K00BS 675 0.0 0.0
K009O 568 0.2- 0.1+ K00B4 309 0.1- 0.2- K00CG 695 0.0 0.2+
K009O 568 0.3- 0.2+ K00B4 309 0.1- 0.2- K00CG 695 0.2- 0.5+
K009O 568 0.4- 0.2+ K00BO 809 0.0 0.1+ K00CG 695 0.1- 0.6+
K00B2 695 0.0 0.0 K00BO 809 0.2- 0.0 K00CI 695 0.3+ 0.4-
K00B2 695 0.1+ 0.2- K00BO 809 0.2+ 0.1+ K00CI 695 0.1+ 0.7-
S/2000 S 6
Epoch 2001 Apr. 1.0 TT = JDT 2452000.5 Marsden
M 30.67866 (2000.0) P Q
n 0.79688524 Peri. 70.52638 -0.58768103 +0.72229922
a 0.0759049 Node 151.27029 -0.63175617 -0.69116187
e 0.3672667 Incl. 49.32856 +0.50548507 -0.02406446
P 1.24 H 13.2 P/d 451.76
Residuals in seconds of arc
K009N 568 0.0 0.0 K00B2 695 0.2+ 0.0 K00BO 809 0.1- 0.1-
K009N 568 0.0 0.2+ K00B2 695 0.2+ 0.1+ K00CG 695 0.0 0.5+
K009N 568 0.0 0.1- K00B3 695 0.0 0.0 K00CG 695 0.4- 0.8+
K009N 568 0.2- 0.2- K00B3 695 0.2+ 0.1- K00CI 695 0.1+ 0.3-
K009O 568 0.2+ 0.1+ K00B4 309 0.2- 0.0 K00CI 695 0.1+ 0.5-
K009O 568 0.0 0.1+ K00B4 309 0.0 0.0 K00CI 695 0.2+ 0.6-
K009O 568 0.1- 0.0 K00BO 809 0.0 0.0
K00B2 695 0.0 0.1+ K00BO 809 0.3- 0.1+
S/2000 S 10
Epoch 2001 Apr. 1.0 TT = JDT 2452000.5 Marsden
M 127.58611 (2000.0) P Q
n 0.38842149 Peri. 287.75284 +0.25060081 -0.90707184
a 0.1225551 Node 141.94939 +0.95553574 +0.28785014
e 0.6143584 Incl. 33.28509 -0.15540492 +0.30718558
P 2.54 H 13.7 P/d 926.83
Residuals in seconds of arc
K009N 568 0.1- 0.1- K00BO 809 0.3- 0.2- K00CG 695 0.1- 0.1+
K009N 568 0.1- 0.2- K00BO 809 0.3+ 0.1- K00CG 695 0.2- 0.0
K009N 568 0.1- 0.1- K00BO 809 0.1- 0.0 K00CG 695 0.1+ 0.1+
K009O 568 0.2+ 0.2+ K00BR 675 0.2+ 0.3+ K00CH 695 0.2+ 0.2-
K009O 568 0.2+ 0.1+ K00BR 675 0.0 0.0
K009O 568 0.0 0.1+ K00BR 675 0.1- 0.0
Ephemerides:
S/2000 S 3 q = 0.0779
Date TT R. A. (2000) Decl. Delta r_S dR.A. ("/m) dDecl.m1"/')
2000 12 12 03 36.38 +17 07.6 8.293 0.085 451+/0.52+ 510+/ 8.5+
2000 12 22 03 33.86 +17 04.0 8.370 0.083 566+/0.66+ 722+/ 12.0+
2001 01 01 03 31.87 +17 02.2 8.471 0.081 659+/0.77+ 916+/ 15.3+
2001 01 11 03 30.50 +17 02.5 8.592 0.080 732+/0.85+ 1087+/ 18.1+
2001 01 21 03 29.83 +17 05.2 8.729 0.079 783+/0.91+ 1231+/ 20.5+
2001 01 31 03 29.90 +17 10.2 8.877 0.078 815+/0.95+ 1346+/ 22.4+
2001 02 10 03 30.71 +17 17.4 9.031 0.078 831+/0.97+ 1433+/ 23.9+
2001 02 20 03 32.24 +17 26.7 9.186 0.078 834+/0.97+ 1491+/ 24.8+
2001 03 02 03 34.46 +17 37.8 9.338 0.079 827+/0.96+ 1522+/ 25.4+
2001 03 12 03 37.31 +17 50.4 9.482 0.080 813+/0.95+ 1528+/ 25.5+
2001 03 22 03 40.73 +18 04.1 9.615 0.081 794+/0.93+ 1512+/ 25.2+
2001 04 01 03 44.66 +18 18.7 9.733 0.083 774+/0.91+ 1477+/ 24.6+
2001 04 11 03 49.00 +18 33.7 9.834 0.085 754+/0.88+ 1425+/ 23.7+
S/2000 S 4 q = 0.0436
Date TT R. A. (2000) Decl. Delta r_S dR.A. ("/m) dDecl. ("/')
2000 12 12 03 37.61 +17 14.2 8.251 0.080 1514+/1.76+ 904+/ 15.1+
2000 12 22 03 35.14 +17 10.3 8.329 0.087 1666+/1.94+ 1103+/ 18.4+
2001 01 01 03 33.18 +17 08.2 8.431 0.094 1784+/2.07+ 1278+/ 21.3+
2001 01 11 03 31.83 +17 08.3 8.555 0.100 1873+/2.18+ 1431+/ 23.9+
2001 01 21 03 31.18 +17 10.7 8.695 0.106 1937+/2.25+ 1563+/ 26.0+
2001 01 31 03 31.26 +17 15.7 8.847 0.112 1984+/2.31+ 1676+/ 27.9+
2001 02 10 03 32.09 +17 23.1 9.005 0.117 2017+/2.35+ 1771+/ 29.5+
2001 02 20 03 33.65 +17 32.7 9.166 0.123 2041+/2.38+ 1853+/ 30.9+
2001 03 02 03 35.90 +17 44.5 9.324 0.128 2060+/2.40+ 1922+/ 32.0+
2001 03 12 03 38.79 +17 57.9 9.474 0.133 2077+/2.43+ 1982+/ 33.0+
2001 03 22 03 42.25 +18 12.8 9.614 0.137 2094+/2.45+ 2034+/ 33.9+
2001 04 01 03 46.22 +18 28.7 9.739 0.142 2113+/2.48+ 2080+/ 34.7+
2001 04 11 03 50.63 +18 45.3 9.847 0.146 2136+/2.51+ 2122+/ 35.4+
S/2000 S 5 q = 0.0636
Date TT R. A. (2000) Decl. Delta r_S dR.A. ("/m) dDecl. ("/')
2000 12 12 03 37.68 +16 57.6 8.168 0.077 1571+/1.82+ 92-/ 1.5-
2000 12 22 03 34.92 +16 46.9 8.246 0.078 1473+/1.71+ 305-/ 5.1-
2001 01 01 03 32.67 +16 38.4 8.350 0.080 1348+/1.56+ 508-/ 8.5-
2001 01 11 03 31.05 +16 32.8 8.476 0.081 1204+/1.40+ 697-/ 11.6-
2001 01 21 03 30.14 +16 30.2 8.620 0.083 1047+/1.21+ 868-/ 14.5-
2001 01 31 03 29.97 +16 30.7 8.777 0.084 882+/1.02+ 1020-/ 17.0-
2001 02 10 03 30.57 +16 34.4 8.941 0.085 713+/0.83+ 1150-/ 19.2-
2001 02 20 03 31.90 +16 40.9 9.108 0.086 543+/0.63+ 1258-/ 21.0-
2001 03 02 03 33.93 +16 50.0 9.272 0.086 374+/0.43+ 1346-/ 22.4-
2001 03 12 03 36.60 +17 01.4 9.429 0.087 207+/0.24+ 1413-/ 23.5-
2001 03 22 03 39.85 +17 14.6 9.575 0.087 43+/0.05+ 1460-/ 24.3-
2001 04 01 03 43.61 +17 29.3 9.706 0.087 119-/0.14- 1488-/ 24.8-
2001 04 11 03 47.80 +17 45.0 9.821 0.087 276-/0.32- 1498-/ 25.0-
S/2000 S 6 q = 0.0480
Date TT R. A. (2000) Decl. Delta r_S dR.A. ("/m) dDecl. ("/')
2000 12 12 03 37.81 +16 55.1 8.230 0.070 1682+/1.95+ 243-/ 4.0-
2000 12 22 03 35.09 +16 51.5 8.304 0.066 1620+/1.88+ 28-/ 0.5-
2001 01 01 03 32.85 +16 49.9 8.404 0.062 1501+/1.74+ 182+/ 3.0+
2001 01 11 03 31.19 +16 50.7 8.525 0.058 1325+/1.54+ 376+/ 6.3+
2001 01 21 03 30.19 +16 53.8 8.663 0.054 1092+/1.27+ 546+/ 9.1+
2001 01 31 03 29.89 +16 59.1 8.814 0.051 810+/0.94+ 679+/ 11.3+
2001 02 10 03 30.31 +17 06.3 8.973 0.049 489+/0.57+ 765+/ 12.8+
2001 02 20 03 31.44 +17 15.1 9.136 0.048 150+/0.17+ 795+/ 13.3+
2001 03 02 03 33.28 +17 25.2 9.298 0.048 186-/0.22- 768+/ 12.8+
2001 03 12 03 35.79 +17 36.4 9.454 0.050 495-/0.58- 689+/ 11.5+
2001 03 22 03 38.91 +17 48.4 9.600 0.053 762-/0.89- 571+/ 9.5+
2001 04 01 03 42.60 +18 01.2 9.733 0.056 983-/1.15- 427+/ 7.1+
2001 04 11 03 46.77 +18 14.4 9.849 0.060 1158-/1.36- 270+/ 4.5+
S/2000 S 10 q = 0.0473
Date TT R. A. (2000) Decl. Delta r_S dR.A. ("/m) dDecl. ("/')
2000 12 12 03 36.79 +17 36.2 8.088 0.156 806+/0.94+ 2224+/ 37.1+
2000 12 22 03 33.96 +17 29.2 8.166 0.159 648+/0.76+ 2235+/ 37.3+
2001 01 01 03 31.68 +17 24.2 8.270 0.163 498+/0.58+ 2235+/ 37.3+
2001 01 11 03 30.07 +17 21.5 8.396 0.166 358+/0.42+ 2226+/ 37.1+
2001 01 21 03 29.19 +17 21.5 8.539 0.169 232+/0.27+ 2211+/ 36.9+
2001 01 31 03 29.10 +17 24.3 8.693 0.172 123+/0.14+ 2192+/ 36.5+
2001 02 10 03 29.78 +17 29.7 8.855 0.174 30+/0.03+ 2172+/ 36.2+
2001 02 20 03 31.22 +17 37.7 9.018 0.177 47-/0.05- 2151+/ 35.8+
2001 03 02 03 33.37 +17 47.9 9.179 0.179 108-/0.13- 2131+/ 35.5+
2001 03 12 03 36.18 +18 00.1 9.332 0.182 155-/0.18- 2113+/ 35.2+
2001 03 22 03 39.58 +18 13.9 9.474 0.184 190-/0.22- 2098+/ 35.0+
2001 04 01 03 43.50 +18 28.8 9.601 0.186 213-/0.25- 2086+/ 34.8+
2001 04 11 03 47.85 +18 44.6 9.710 0.187 228-/0.27- 2077+/ 34.6+
Brian G. Marsden (C) Copyright 2000 MPC M.P.E.C. 2000-Y14
Read MPEC 2000-Y13
Read MPEC 2000-Y15
Our Web policy. Index to the CBAT/MPC/ICQ pages.